PAGEOS 1 DEB, 9468

Orbit data source: Space-Track

PAGEOS 1 DEB, 9468 is space debris in LEO originally from a launch on Fri, 24 Jun 1966 UTC launched from the Air Force Western Test Range (AFWTR). Debris objects in space refer to the collection of defunct objects orbiting the Earth. Examples of debris include non-operational satellites, rocket bodies, and fragments generated from explosions, collisions, or faulty payload assembly.

Loading next visibility...
Identifier
9468, 1966-056AH
Orbit
LEO
Last TLE update
2 months ago
Origin
Manufacturer
Unknown
Mission
Spacecraft
Bus & Motor
Unknown
Mass
Unknown
Launch date (UTC)
1966-06-24 (59 years ago)
Launch vehicle
Unknown
Launch site
Air Force Western Test Range (AFWTR)
Object type
Payload
Rocket body
Debris
Shape & HBR
Unknown
Radar Cross Section
0.200 m², Medium (>0.1 m² and < 1m²)

Expand to show TLE details & history

TLE from 2 months ago
0 PAGEOS 1 DEB
1 09468U 66056AH  25146.02646242  .00000348  00000-0  11704+0 0  9991
2 09468  85.0380 163.1688 1476553 314.0579  34.7508  8.06687613 34612
Epoch: 2025-05-26T00:38Z
TLE epoch observation values (Epoch: 2025-05-26T00:38:06.353Z)
Latitude
Longitude
-90.20219°
Altitude
2,941.626 km
Speed
6.9 km/s
True Right ascension
10h 52m 40s
True Declination
0° 00' 00"
Sunlit
Object was in daylight at epoch
Visualization orbit readout
Latitude
-28.25246°
Longitude
84.03132°
Altitude
3,177.729 km
Speed
6.747 km/s
Apparent Right ascension
20h 36m 05s
Apparent Declination
-39° 57' 52"
Sunlit
Object is in daylight
Visualization observer readout
Local Sidereal Time
04:56:54
Azimuth
251.535° W
Elevation
-48.68°
Doppler factor
1
Orbital elements
Apogee altitude
5,671.918 km
Perigee altitude
2,571.241 km
Semi-major axis
10,499.716 km
Eccentricity
0.14766
Inclination
85.038°
RAAN
163.1688°
Arg. of periapsis
314.0579°
True anomaly
46.03003°
Mean anomaly
34.7508°
Eccentric anomaly
40.21284°
Mean motion
2.01733 °/min
Orbital period
178.45 mins
BSTAR
0.11704
Loading maneuver chart data...
Loading SW <> Apogee altitude chart data...
|